| time (UTC) | temp C | wind direction | speed KPH | gust KPH | rain 1hr cm | rain 24hr cm | rain mn cm | humidity % | barometer mb |
| 20260506044542 | 23 | 175 | 6.4 | 11.3 | 0.00 | 0.00 | 0.00 | 89 | 1008.3 |
| 20260506043049 | 23 | 173 | 8.0 | 12.9 | 0.00 | 0.00 | 0.00 | 88 | 1008.5 |
| 20260506041547 | 24 | 192 | 8.0 | 14.5 | 0.00 | 0.00 | 0.00 | 88 | 1008.0 |
| 20260506040050 | 24 | 154 | 8.0 | 16.1 | 0.00 | 0.00 | 0.00 | 88 | 1008.0 |
| 20260506034541 | 24 | 159 | 8.0 | 19.3 | 0.00 | 0.00 | 0.00 | 87 | 1007.9 |
| 20260506033043 | 24 | 167 | 8.0 | 16.1 | 0.00 | 0.00 | 0.00 | 87 | 1007.5 |
| 20260506031541 | 24 | 166 | 6.4 | 16.1 | 0.00 | 0.00 | 0.00 | 86 | 1007.5 |
| 20260506030040 | 24 | 179 | 8.0 | 19.3 | 0.00 | 0.00 | 0.00 | 85 | 1007.3 |
| 20260506024546 | 25 | 158 | 8.0 | 12.9 | 0.00 | 0.00 | 0.00 | 84 | 1006.9 |
| 20260506023043 | 25 | 164 | 8.0 | 16.1 | 0.00 | 0.00 | 0.00 | 83 | 1007.0 |
| 20260506021552 | 25 | 149 | 8.0 | 20.9 | 0.00 | 0.00 | 0.00 | 83 | 1006.6 |
| 20260506020041 | 25 | 155 | 6.4 | 17.7 | 0.00 | 0.00 | 0.00 | 82 | 1006.6 |
| 20260506014541 | 26 | 144 | 3.2 | 12.9 | 0.00 | 0.00 | 0.00 | 79 | 1006.6 |
| 20260506013044 | 26 | 157 | 6.4 | 12.9 | 0.00 | 0.00 | 0.00 | 79 | 1006.4 |
| 20260506011548 | 26 | 141 | 3.2 | 6.4 | 0.00 | 0.00 | 0.00 | 79 | 1006.3 |
| 20260506010048 | 26 | 144 | 3.2 | 6.4 | 0.00 | 0.00 | 0.00 | 78 | 1006.0 |
| 20260506004540 | 27 | 137 | 3.2 | 9.7 | 0.00 | 0.00 | 0.00 | 77 | 1005.9 |
| 20260506003042 | 27 | 134 | 1.6 | 4.8 | 0.00 | 0.00 | 0.00 | 75 | 1005.7 |
| 20260506001541 | 27 | 140 | 3.2 | 11.3 | 0.00 | 0.00 | 0.00 | 74 | 1005.5 |
| 20260506000040 | 28 | 192 | 6.4 | 12.9 | 0.00 | 0.00 | 0.00 | 72 | 1005.6 |
| 20260505234605 | 28 | 153 | 6.4 | 16.1 | 0.00 | 0.00 | 0.00 | 72 | 1005.5 |
| 20260505233047 | 28 | 165 | 9.7 | 19.3 | 0.00 | 0.00 | 0.00 | 71 | 1005.4 |
| 20260505231542 | 28 | 148 | 9.7 | 22.5 | 0.00 | 0.00 | 0.00 | 72 | 1005.3 |
| 20260505230046 | 28 | 146 | 9.7 | 17.7 | 0.00 | 0.00 | 0.00 | 72 | 1005.3 |
| 20260505224541 | 28 | 192 | 8.0 | 17.7 | 0.00 | 0.00 | 0.00 | 71 | 1005.4 |
| 20260505223046 | 28 | 135 | 9.7 | 17.7 | 0.00 | 0.00 | 0.00 | 71 | 1005.4 |
| 20260505221543 | 28 | 194 | 9.7 | 19.3 | 0.00 | 0.00 | 0.00 | 72 | 1005.5 |
| 20260505220046 | 28 | 169 | 12.9 | 20.9 | 0.00 | 0.00 | 0.00 | 71 | 1005.6 |
| 20260505214552 | 28 | 184 | 9.7 | 24.1 | 0.00 | 0.00 | 0.00 | 71 | 1005.8 |
| 20260505213042 | 28 | 161 | 11.3 | 19.3 | 0.00 | 0.00 | 0.00 | 71 | 1005.9 |
| 20260505211549 | 28 | 169 | 11.3 | 22.5 | 0.00 | 0.00 | 0.00 | 71 | 1006.0 |
| 20260505210041 | 28 | 190 | 14.5 | 27.4 | 0.00 | 0.00 | 0.00 | 69 | 1006.2 |
| 20260505204540 | 27 | 170 | 11.3 | 17.7 | 0.00 | 0.00 | 0.00 | 72 | 1006.6 |
| 20260505203052 | 27 | 153 | 11.3 | 20.9 | 0.00 | 0.00 | 0.00 | 72 | 1006.7 |
| 20260505201542 | 27 | 184 | 11.3 | 19.3 | 0.00 | 0.00 | 0.00 | 72 | 1006.9 |
| 20260505200040 | 27 | 194 | 12.9 | 29.0 | 0.00 | 0.00 | 0.00 | 74 | 1007.1 |
| 20260505194544 | 27 | 192 | 11.3 | 20.9 | 0.00 | 0.00 | 0.00 | 75 | 1007.3 |
| 20260505193042 | 26 | 158 | 9.7 | 22.5 | 0.00 | 0.00 | 0.00 | 77 | 1007.5 |
| 20260505191550 | 26 | 182 | 11.3 | 17.7 | 0.00 | 0.00 | 0.00 | 78 | 1007.9 |
| 20260505190043 | 26 | 186 | 12.9 | 19.3 | 0.00 | 0.00 | 0.00 | 78 | 1007.9 |
| 20260505184548 | 26 | 175 | 11.3 | 19.3 | 0.00 | 0.00 | 0.00 | 77 | 1008.0 |
| 20260505183043 | 25 | 231 | 11.3 | 19.3 | 0.00 | 0.00 | 0.00 | 79 | 1008.1 |
| 20260505181543 | 25 | 183 | 12.9 | 19.3 | 0.00 | 0.00 | 0.00 | 80 | 1008.3 |
| 20260505180053 | 25 | 211 | 9.7 | 19.3 | 0.00 | 0.00 | 0.00 | 81 | 1008.5 |
| 20260505174542 | 24 | 234 | 11.3 | 16.1 | 0.00 | 0.00 | 0.00 | 83 | 1008.8 |
| 20260505173040 | 24 | 227 | 12.9 | 24.1 | 0.00 | 0.00 | 0.00 | 84 | 1008.7 |
| 20260505171540 | 23 | 211 | 11.3 | 20.9 | 0.00 | 0.00 | 0.00 | 85 | 1008.8 |
| 20260505170038 | 23 | 220 | 9.7 | 16.1 | 0.00 | 0.00 | 0.00 | 86 | 1009.0 |
| 20260505164542 | 23 | 202 | 9.7 | 16.1 | 0.00 | 0.00 | 0.00 | 87 | 1009.0 |
| 20260505163042 | 23 | 186 | 8.0 | 17.7 | 0.00 | 0.00 | 0.00 | 87 | 1008.9 |
| 20260505161543 | 22 | 229 | 9.7 | 16.1 | 0.00 | 0.00 | 0.00 | 87 | 1009.0 |
| 20260505153050 | 22 | 216 | 8.0 | 16.1 | 0.00 | 0.00 | 0.00 | 91 | 1009.0 |
| 20260505151545 | 21 | 204 | 8.0 | 17.7 | 0.00 | 0.00 | 0.00 | 92 | 1008.8 |
| 20260505124548 | 21 | 176 | 12.9 | 22.5 | 0.00 | 0.00 | 0.00 | 89 | 1007.8 |
| 20260505123045 | 21 | 204 | 8.0 | 17.7 | 0.00 | 0.00 | 0.00 | 89 | 1007.6 |
| 20260505121548 | 21 | 194 | 8.0 | 19.3 | 0.00 | 0.00 | 0.00 | 89 | 1007.6 |
| 20260505120040 | 21 | 180 | 8.0 | 19.3 | 0.00 | 0.00 | 0.00 | 89 | 1007.2 |
| 20260505114540 | 21 | 186 | 9.7 | 17.7 | 0.00 | 0.00 | 0.00 | 89 | 1007.4 |
| 20260505113042 | 21 | 171 | 8.0 | 19.3 | 0.00 | 0.00 | 0.00 | 89 | 1007.3 |
| 20260505111545 | 21 | 193 | 11.3 | 22.5 | 0.00 | 0.00 | 0.00 | 88 | 1007.3 |
| 20260505101545 | 21 | 195 | 12.9 | 25.7 | 0.00 | 0.00 | 0.00 | 88 | 1007.7 |
| 20260505100043 | 21 | 187 | 12.9 | 22.5 | 0.00 | 0.00 | 0.00 | 89 | 1007.5 |
| 20260505094545 | 20 | 196 | 9.7 | 19.3 | 0.00 | 0.00 | 0.00 | 90 | 1007.6 |
| 20260505093051 | 20 | 180 | 8.0 | 17.7 | 0.00 | 0.00 | 0.00 | 90 | 1007.4 |
| 20260505091544 | 20 | 211 | 12.9 | 19.3 | 0.00 | 0.00 | 0.00 | 90 | 1007.6 |
| 20260505090042 | 20 | 196 | 9.7 | 20.9 | 0.00 | 0.00 | 0.00 | 90 | 1007.7 |
| 20260505084543 | 20 | 171 | 11.3 | 20.9 | 0.00 | 0.00 | 0.00 | 90 | 1007.7 |
| 20260505083057 | 20 | 172 | 9.7 | 19.3 | 0.00 | 0.00 | 0.00 | 89 | 1008.0 |
| 20260505081540 | 20 | 189 | 12.9 | 25.7 | 0.00 | 0.00 | 0.00 | 89 | 1008.3 |
| 20260505080043 | 20 | 183 | 14.5 | 24.1 | 0.00 | 0.00 | 0.00 | 88 | 1008.3 |
| 20260505074543 | 20 | 174 | 11.3 | 20.9 | 0.00 | 0.00 | 0.00 | 89 | 1008.6 |
| 20260505073043 | 20 | 196 | 12.9 | 32.2 | 0.00 | 0.00 | 0.00 | 88 | 1008.8 |
| 20260505071540 | 20 | 187 | 9.7 | 24.1 | 0.00 | 0.00 | 0.00 | 88 | 1008.8 |
| 20260505070054 | 21 | 235 | 14.5 | 22.5 | 0.00 | 0.00 | 0.00 | 88 | 1008.9 |
| 20260505064550 | 21 | 171 | 9.7 | 25.7 | 0.00 | 0.00 | 0.00 | 88 | 1009.2 |
| 20260505063043 | 20 | 155 | 11.3 | 22.5 | 0.00 | 0.00 | 0.00 | 88 | 1009.4 |
| 20260505061608 | 21 | 198 | 12.9 | 29.0 | 0.00 | 0.00 | 0.00 | 87 | 1009.4 |
| 20260505060051 | 20 | 183 | 11.3 | 24.1 | 0.00 | 0.00 | 0.00 | 87 | 1009.4 |
| 20260505054547 | 20 | 175 | 11.3 | 27.4 | 0.00 | 0.00 | 0.00 | 87 | 1009.3 |
| 20260505053044 | 21 | 175 | 14.5 | 32.2 | 0.00 | 0.00 | 0.00 | 86 | 1009.3 |
| 20260505051542 | 21 | 194 | 9.7 | 24.1 | 0.00 | 0.00 | 0.00 | 86 | 1009.2 |